contact:dominique.lefevre@mio.osupytheas.fr, maurice.libes@osupytheas.fr, didier.mallarino@osupytheas.fr
Project:EMSO http://www.emso-fr.org/EMSO-France
Depth: 2436.0 m
Title:EMSO Ligure Ouest : Data MII capteur AQUADOPP
Date,Latitude,Longitude,X_East,Y_North,Z_Up,Amplitude_X,Amplitude_Y,Amplitude_Z,Batterie,SoundSpeed,Heading,Pitch,Roll,Pressure,TIS,Speed,Direction
, degrees North, degrees East, m.s-1, m.s-1,m.s-1, 1, 1, 1, Volt, m.s-1, degree, degree, degree, dbar, degree_C, m.s-1, degree
2022-06-29T00:04:03,42.805,6.029,0.04,-0.023,-0.033,105.0,105.0,103.0,13.3,1505.2,324.5,-0.8,1.8,2470.936,13.28,0.046,119.9
2022-06-29T00:07:03,42.805,6.029,0.026,-0.002,0.01,105.0,105.0,103.0,13.4,1505.2,327.9,-0.7,1.8,2470.955,13.28,0.026,94.4
2022-06-29T00:10:03,42.805,6.029,0.03,0.0,-0.028,106.0,106.0,103.0,13.3,1505.2,331.4,-0.7,1.8,2470.926,13.28,0.03,90.0
2022-06-29T00:13:03,42.805,6.029,0.024,-0.001,-0.008,106.0,105.0,104.0,13.4,1505.2,325.0,-0.8,1.8,2470.921,13.28,0.024,92.4
2022-06-29T00:16:03,42.805,6.029,0.025,-0.009,-0.003,106.0,103.0,104.0,13.3,1505.2,328.5,-0.8,1.8,2470.876,13.28,0.026,109.8
2022-06-29T00:19:03,42.805,6.029,0.026,-0.025,-0.007,106.0,105.0,103.0,13.3,1505.2,328.7,-0.7,1.8,2470.919,13.28,0.036,133.9
2022-06-29T00:22:03,42.805,6.029,0.036,-0.004,0.018,106.0,105.0,103.0,13.4,1505.2,321.3,-0.8,1.8,2470.928,13.29,0.036,96.3
2022-06-29T00:25:03,42.805,6.029,0.031,0.001,-0.004,105.0,104.0,102.0,13.4,1505.2,322.4,-0.7,1.8,2470.929,13.29,0.031,88.2
2022-06-29T00:28:03,42.805,6.029,0.03,0.012,0.015,106.0,105.0,103.0,13.3,1505.2,330.5,-0.7,1.8,2470.887,13.29,0.032,68.2
2022-06-29T00:31:03,42.805,6.029,0.026,0.002,-0.029,106.0,105.0,105.0,13.4,1505.2,329.6,-0.8,1.8,2470.903,13.29,0.026,85.6
2022-06-29T00:34:03,42.805,6.029,0.014,-0.011,-0.021,107.0,106.0,103.0,13.4,1505.2,325.1,-0.8,1.8,2470.882,13.28,0.017,128.2
2022-06-29T00:37:03,42.805,6.029,0.028,0.011,-0.001,106.0,107.0,104.0,13.4,1505.2,328.2,-0.8,1.8,2470.875,13.29,0.03,68.6
2022-06-29T00:40:03,42.805,6.029,0.036,-0.024,0.004,106.0,104.0,104.0,13.3,1505.2,331.4,-0.7,1.8,2470.881,13.28,0.043,123.7
2022-06-29T00:43:03,42.805,6.029,0.046,0.001,-0.011,106.0,107.0,104.0,13.3,1505.2,320.0,-0.7,1.8,2470.838,13.29,0.046,88.8
2022-06-29T00:46:03,42.805,6.029,0.049,-0.015,0.003,106.0,105.0,103.0,13.4,1505.2,329.6,-0.7,1.8,2470.879,13.28,0.051,107.0
2022-06-29T00:49:03,42.805,6.029,0.029,-0.01,-0.019,105.0,106.0,103.0,13.4,1505.2,326.5,-0.8,1.9,2470.875,13.28,0.03,109.0
2022-06-29T00:52:03,42.805,6.029,0.027,-0.017,0.011,106.0,105.0,103.0,13.4,1505.2,333.4,-0.8,1.8,2470.862,13.28,0.031,122.2
2022-06-29T00:55:03,42.805,6.029,0.033,-0.015,-0.041,105.0,105.0,103.0,13.4,1505.2,330.1,-0.8,1.8,2470.873,13.28,0.036,114.4
2022-06-29T00:58:03,42.805,6.029,0.016,-0.007,-0.007,108.0,105.0,103.0,13.4,1505.2,333.4,-0.8,1.8,2470.864,13.28,0.017,113.6
2022-06-29T02:04:03,42.805,6.029,0.029,-0.008,-0.036,106.0,105.0,103.0,13.4,1505.1,328.5,-0.8,1.8,2471.344,13.27,0.03,105.4
2022-06-29T02:07:03,42.805,6.029,0.014,-0.013,-0.05,105.0,106.0,103.0,13.4,1505.2,328.9,-0.8,1.8,2471.239,13.28,0.019,132.9
2022-06-29T02:10:03,42.805,6.029,0.023,-0.002,-0.029,105.0,105.0,103.0,13.3,1505.2,322.5,-0.8,1.8,2471.142,13.28,0.023,95.0
2022-06-29T02:13:03,42.805,6.029,0.043,-0.014,0.003,105.0,105.0,103.0,13.4,1505.2,326.3,-0.8,1.8,2471.063,13.28,0.045,108.0
2022-06-29T02:16:03,42.805,6.029,0.025,-0.008,-0.009,107.0,105.0,102.0,13.4,1505.2,326.5,-0.8,1.8,2471.035,13.28,0.026,107.7
2022-06-29T02:19:03,42.805,6.029,0.031,-0.022,-0.023,105.0,104.0,102.0,13.4,1505.2,329.5,-0.8,1.8,2471.0,13.28,0.038,125.4
2022-06-29T02:22:03,42.805,6.029,0.03,-0.016,-0.012,106.0,105.0,104.0,13.3,1505.2,320.1,-0.8,1.8,2470.933,13.28,0.034,118.1
2022-06-29T02:25:03,42.805,6.029,0.017,-0.014,-0.024,105.0,105.0,103.0,13.3,1505.2,323.1,-0.7,1.8,2470.92,13.28,0.022,129.5
2022-06-29T02:28:03,42.805,6.029,0.029,-0.025,-0.029,104.0,105.0,103.0,13.4,1505.2,326.9,-0.7,1.8,2470.959,13.28,0.038,130.8
2022-06-29T02:31:03,42.805,6.029,0.036,-0.018,-0.009,104.0,104.0,103.0,13.4,1505.2,332.9,-0.7,1.9,2470.86,13.28,0.04,116.6
2022-06-29T02:34:03,42.805,6.029,0.022,-0.036,0.005,105.0,106.0,102.0,13.3,1505.2,326.5,-0.7,1.8,2470.868,13.28,0.042,148.6
2022-06-29T02:37:03,42.805,6.029,0.022,-0.006,0.007,105.0,105.0,104.0,13.3,1505.2,332.7,-0.7,1.8,2470.832,13.29,0.022,105.3
2022-06-29T02:40:03,42.805,6.029,0.014,-0.017,0.007,106.0,105.0,102.0,13.4,1505.2,333.4,-0.7,1.8,2470.882,13.29,0.022,140.5
2022-06-29T02:43:03,42.805,6.029,0.008,-0.018,-0.015,105.0,105.0,102.0,13.3,1505.2,329.0,-0.8,1.8,2470.87,13.29,0.019,156.0
2022-06-29T02:46:03,42.805,6.029,0.03,-0.021,-0.03,106.0,105.0,103.0,13.4,1505.2,326.3,-0.7,1.8,2470.872,13.29,0.036,125.0
2022-06-29T02:49:03,42.805,6.029,0.006,-0.021,-0.035,105.0,104.0,103.0,13.4,1505.2,326.3,-0.8,1.8,2470.815,13.29,0.021,164.1
2022-06-29T02:52:03,42.805,6.029,0.012,0.009,-0.002,107.0,104.0,104.0,13.4,1505.2,328.7,-0.8,1.8,2470.88,13.29,0.015,53.1
2022-06-29T02:55:03,42.805,6.029,0.039,-0.014,-0.036,105.0,105.0,102.0,13.4,1505.2,319.6,-0.7,1.8,2470.862,13.29,0.041,109.7
2022-06-29T02:58:03,42.805,6.029,0.022,-0.017,-0.003,105.0,105.0,103.0,13.3,1505.2,332.7,-0.8,1.8,2470.841,13.29,0.027,127.7
2022-06-29T03:04:03,42.805,6.029,0.021,-0.051,-0.037,106.0,106.0,103.0,13.4,1505.2,328.8,-0.8,1.9,2470.888,13.28,0.055,157.6
2022-06-29T03:07:03,42.805,6.029,0.019,-0.008,0.011,105.0,105.0,103.0,13.3,1505.2,319.3,-0.7,1.8,2470.894,13.28,0.02,112.8
2022-06-29T03:10:03,42.805,6.029,0.03,-0.026,-0.037,105.0,104.0,103.0,13.4,1505.2,331.5,-0.8,1.8,2470.889,13.28,0.039,130.9
2022-06-29T03:13:03,42.805,6.029,0.024,-0.026,-0.019,106.0,104.0,103.0,13.4,1505.2,329.6,-0.7,1.9,2470.849,13.28,0.035,137.3
2022-06-29T03:16:03,42.805,6.029,0.036,-0.014,-0.034,105.0,105.0,103.0,13.3,1505.2,321.0,-0.8,1.8,2470.878,13.28,0.038,111.2
2022-06-29T03:19:03,42.805,6.029,0.033,-0.015,-0.008,106.0,104.0,103.0,13.3,1505.2,332.7,-0.7,1.8,2470.836,13.28,0.036,114.4
2022-06-29T03:22:03,42.805,6.029,0.007,-0.029,-0.007,105.0,106.0,103.0,13.4,1505.2,329.6,-0.7,1.8,2470.862,13.28,0.029,166.4
2022-06-29T03:25:03,42.805,6.029,0.032,-0.013,-0.013,106.0,105.0,102.0,13.4,1505.2,330.1,-0.7,1.8,2470.871,13.28,0.034,112.1
2022-06-29T03:28:03,42.805,6.029,0.009,-0.017,-0.028,104.0,105.0,103.0,13.3,1505.2,321.4,-0.8,1.8,2470.843,13.28,0.019,152.1
2022-06-29T03:31:03,42.805,6.029,0.031,0.005,-0.02,105.0,105.0,102.0,13.4,1505.2,322.1,-0.7,1.8,2470.879,13.29,0.031,80.8
2022-06-29T03:34:03,42.805,6.029,0.036,-0.013,0.007,105.0,106.0,103.0,13.4,1505.2,327.6,-0.8,1.8,2470.867,13.29,0.038,109.9
2022-06-29T03:37:03,42.805,6.029,0.033,0.0,-0.035,105.0,106.0,103.0,13.4,1505.2,330.5,-0.7,1.8,2470.889,13.29,0.033,90.0
2022-06-29T03:40:03,42.805,6.029,0.028,-0.019,-0.018,106.0,108.0,103.0,13.4,1505.2,332.4,-0.8,1.9,2470.879,13.29,0.033,124.2
2022-06-29T03:43:03,42.805,6.029,0.036,-0.029,-0.024,106.0,106.0,102.0,13.4,1505.2,327.4,-0.7,1.8,2470.807,13.29,0.046,128.9
2022-06-29T03:46:03,42.805,6.029,0.037,-0.023,-0.049,105.0,105.0,103.0,13.4,1505.2,329.3,-0.8,1.8,2470.834,13.29,0.043,121.9
2022-06-29T03:49:03,42.805,6.029,0.052,-0.014,0.009,106.0,105.0,102.0,13.3,1505.2,330.7,-0.8,1.8,2470.868,13.29,0.053,105.1
2022-06-29T03:52:03,42.805,6.029,0.019,-0.016,-0.03,106.0,107.0,102.0,13.4,1505.2,326.3,-0.7,1.8,2470.878,13.29,0.024,130.1
2022-06-29T03:55:03,42.805,6.029,0.035,-0.001,-0.017,107.0,105.0,103.0,13.3,1505.2,320.1,-0.7,1.8,2470.825,13.29,0.035,91.6
2022-06-29T03:58:03,42.805,6.029,0.029,-0.017,0.002,105.0,105.0,102.0,13.3,1505.2,329.5,-0.8,1.9,2470.856,13.29,0.033,120.4
2022-06-29T04:04:03,42.805,6.029,0.027,-0.036,0.0,104.0,106.0,103.0,13.4,1505.2,323.4,-0.8,1.8,2470.911,13.28,0.045,143.1
2022-06-29T04:07:03,42.805,6.029,0.037,-0.027,-0.022,106.0,105.0,103.0,13.4,1505.2,322.3,-0.8,1.8,2470.936,13.28,0.045,126.1
2022-06-29T04:10:03,42.805,6.029,0.024,-0.012,-0.011,105.0,105.0,103.0,13.4,1505.2,333.2,-0.7,1.8,2470.894,13.28,0.026,116.6
2022-06-29T04:13:03,42.805,6.029,0.026,-0.02,-0.007,105.0,103.0,103.0,13.4,1505.2,320.9,-0.8,1.8,2470.899,13.28,0.032,127.6
2022-06-29T04:16:03,42.805,6.029,0.009,-0.024,-0.016,106.0,104.0,103.0,13.3,1505.2,324.0,-0.8,1.8,2470.872,13.28,0.025,159.4
2022-06-29T04:19:03,42.805,6.029,0.01,-0.016,-0.004,104.0,106.0,103.0,13.4,1505.2,321.7,-0.7,1.8,2470.872,13.28,0.018,148.0
2022-06-29T04:22:03,42.805,6.029,0.026,-0.022,-0.004,105.0,105.0,103.0,13.4,1505.2,329.1,-0.7,1.8,2470.885,13.28,0.034,130.2
2022-06-29T04:25:03,42.805,6.029,0.032,-0.021,-0.019,106.0,104.0,102.0,13.4,1505.2,328.0,-0.7,1.8,2470.824,13.28,0.038,123.3
2022-06-29T04:28:03,42.805,6.029,0.019,-0.006,-0.047,106.0,105.0,102.0,13.4,1505.2,327.6,-0.8,1.8,2470.842,13.28,0.019,107.5
2022-06-29T04:31:03,42.805,6.029,0.018,-0.01,-0.012,104.0,105.0,103.0,13.3,1505.2,327.6,-0.7,1.8,2470.871,13.28,0.02,119.1
2022-06-29T04:34:03,42.805,6.029,0.025,0.002,-0.032,105.0,104.0,105.0,13.4,1505.2,320.0,-0.7,1.8,2470.902,13.29,0.025,85.4
2022-06-29T04:37:03,42.805,6.029,0.002,-0.011,-0.05,105.0,105.0,102.0,13.4,1505.2,332.1,-0.7,1.8,2470.884,13.29,0.011,169.7
2022-06-29T04:40:03,42.805,6.029,0.02,-0.005,0.011,104.0,106.0,103.0,13.4,1505.2,328.4,-0.7,1.8,2470.879,13.29,0.02,104.0
2022-06-29T04:43:03,42.805,6.029,0.051,-0.02,-0.019,105.0,105.0,102.0,13.4,1505.2,330.5,-0.8,1.8,2470.845,13.29,0.054,111.4
2022-06-29T04:46:03,42.805,6.029,0.008,-0.024,-0.014,106.0,103.0,103.0,13.3,1505.2,332.2,-0.8,1.8,2470.865,13.29,0.025,161.6
2022-06-29T04:49:03,42.805,6.029,0.027,0.0,-0.02,106.0,105.0,102.0,13.4,1505.2,320.8,-0.8,1.8,2470.854,13.29,0.026,90.0
2022-06-29T04:52:03,42.805,6.029,0.012,-0.019,-0.004,106.0,104.0,102.0,13.4,1505.2,320.5,-0.7,1.9,2470.881,13.29,0.022,147.7
2022-06-29T04:55:03,42.805,6.029,0.023,-0.029,-0.009,105.0,106.0,103.0,13.4,1505.2,327.9,-0.7,1.8,2470.841,13.28,0.037,141.6
2022-06-29T04:58:03,42.805,6.029,0.052,-0.012,-0.061,104.0,107.0,103.0,13.3,1505.2,324.2,-0.8,1.8,2470.899,13.29,0.053,103.0
2022-06-29T05:04:03,42.805,6.029,0.047,-0.026,-0.018,104.0,105.0,103.0,13.4,1505.2,328.7,-0.8,1.8,2470.945,13.28,0.053,118.9
2022-06-29T05:07:03,42.805,6.029,0.034,-0.029,-0.007,105.0,105.0,103.0,13.4,1505.2,328.8,-0.8,1.8,2470.921,13.28,0.044,130.5
2022-06-29T05:10:03,42.805,6.029,0.033,-0.011,0.01,106.0,106.0,102.0,13.3,1505.2,332.3,-0.7,1.8,2470.898,13.28,0.034,108.4
2022-06-29T05:13:03,42.805,6.029,0.037,-0.017,-0.023,105.0,103.0,104.0,13.3,1505.2,324.3,-0.8,1.8,2470.888,13.28,0.04,114.7
2022-06-29T05:16:03,42.805,6.029,0.036,-0.009,-0.01,105.0,104.0,103.0,13.3,1505.2,322.6,-0.7,1.8,2470.865,13.28,0.037,104.0
2022-06-29T05:19:03,42.805,6.029,0.042,-0.021,0.012,104.0,105.0,104.0,13.4,1505.2,320.8,-0.7,1.8,2470.926,13.28,0.046,116.6
2022-06-29T05:22:03,42.805,6.029,0.011,-0.007,0.021,105.0,105.0,102.0,13.3,1505.2,320.9,-0.7,1.8,2470.887,13.28,0.013,122.5
2022-06-29T05:25:03,42.805,6.029,0.047,-0.005,0.014,106.0,106.0,103.0,13.3,1505.2,325.9,-0.8,1.8,2470.902,13.28,0.047,96.1
2022-06-29T05:28:03,42.805,6.029,0.021,-0.017,-0.037,106.0,105.0,102.0,13.4,1505.2,326.5,-0.7,1.8,2470.88,13.29,0.027,129.0
2022-06-29T05:31:03,42.805,6.029,0.025,-0.017,0.012,105.0,105.0,102.0,13.4,1505.2,331.5,-0.8,1.8,2470.924,13.29,0.03,124.2
2022-06-29T05:34:03,42.805,6.029,0.024,-0.028,-0.007,104.0,104.0,104.0,13.3,1505.2,325.1,-0.7,1.8,2470.914,13.28,0.036,139.4
2022-06-29T05:37:03,42.805,6.029,0.033,-0.002,-0.026,104.0,105.0,103.0,13.4,1505.2,319.3,-0.8,1.8,2470.899,13.29,0.033,93.5
2022-06-29T05:40:03,42.805,6.029,0.037,0.001,0.007,105.0,104.0,102.0,13.4,1505.2,326.5,-0.8,1.8,2470.949,13.28,0.037,88.5
2022-06-29T05:43:03,42.805,6.029,0.007,-0.022,-0.033,105.0,104.0,103.0,13.4,1505.2,332.7,-0.8,1.8,2470.913,13.29,0.023,162.4
2022-06-29T05:46:03,42.805,6.029,0.035,-0.004,-0.007,106.0,105.0,102.0,13.3,1505.2,325.0,-0.8,1.8,2470.916,13.28,0.035,96.5
2022-06-29T05:49:03,42.805,6.029,0.016,-0.016,-0.016,105.0,105.0,102.0,13.3,1505.2,323.0,-0.7,1.8,2470.941,13.28,0.022,135.0
2022-06-29T05:52:03,42.805,6.029,0.036,-0.031,-0.011,105.0,104.0,102.0,13.4,1505.2,330.5,-0.7,1.9,2470.902,13.28,0.047,130.7
2022-06-29T05:55:03,42.805,6.029,0.015,-0.005,-0.001,105.0,105.0,102.0,13.4,1505.2,328.7,-0.8,1.8,2470.931,13.28,0.015,108.4
2022-06-29T05:58:03,42.805,6.029,0.031,-0.024,-0.036,105.0,106.0,101.0,13.4,1505.2,327.5,-0.8,1.8,2470.919,13.28,0.039,127.7
2022-06-29T06:04:03,42.805,6.029,0.02,-0.025,-0.028,105.0,105.0,102.0,13.4,1505.2,323.3,-0.8,1.8,2470.987,13.28,0.032,141.3
2022-06-29T06:07:03,42.805,6.029,0.015,-0.006,-0.006,105.0,105.0,103.0,13.4,1505.2,323.2,-0.8,1.9,2470.977,13.28,0.016,111.8
2022-06-29T06:10:03,42.805,6.029,0.004,-0.006,-0.013,105.0,105.0,103.0,13.4,1505.2,329.1,-0.7,1.8,2470.96,13.28,0.007,146.3
2022-06-29T06:13:03,42.805,6.029,0.022,0.004,-0.017,106.0,106.0,102.0,13.4,1505.2,321.7,-0.7,1.8,2470.947,13.28,0.022,79.7
2022-06-29T06:16:03,42.805,6.029,0.034,-0.019,-0.011,108.0,104.0,102.0,13.4,1505.2,321.8,-0.8,1.8,2470.916,13.28,0.038,119.2
2022-06-29T06:19:03,42.805,6.029,0.033,-0.028,-0.045,105.0,106.0,103.0,13.4,1505.2,319.7,-0.8,1.8,2470.932,13.28,0.043,130.3
2022-06-29T06:22:03,42.805,6.029,0.008,0.005,0.004,105.0,104.0,104.0,13.4,1505.2,332.7,-0.8,1.8,2470.948,13.28,0.009,58.0
2022-06-29T06:25:03,42.805,6.029,0.009,-0.019,-0.025,105.0,104.0,103.0,13.4,1505.2,326.4,-0.7,1.8,2470.894,13.28,0.021,154.7
2022-06-29T06:28:03,42.805,6.029,0.032,-0.009,-0.038,104.0,105.0,102.0,13.4,1505.2,331.8,-0.7,1.8,2470.915,13.28,0.033,105.7
2022-06-29T06:31:03,42.805,6.029,0.011,-0.012,0.0,106.0,105.0,102.0,13.4,1505.2,323.7,-0.8,1.8,2470.922,13.28,0.016,137.5
2022-06-29T06:34:03,42.805,6.029,0.037,-0.037,-0.039,104.0,105.0,102.0,13.4,1505.2,333.1,-0.8,1.8,2470.935,13.28,0.052,135.0
2022-06-29T06:37:03,42.805,6.029,0.017,-0.027,-0.027,105.0,104.0,101.0,13.4,1505.2,325.7,-0.8,1.8,2470.887,13.28,0.031,147.8
2022-06-29T06:40:03,42.805,6.029,0.008,-0.019,-0.021,105.0,105.0,102.0,13.4,1505.2,332.3,-0.8,1.8,2470.927,13.28,0.02,157.2
2022-06-29T06:43:03,42.805,6.029,0.033,0.004,-0.017,106.0,104.0,103.0,13.3,1505.2,325.9,-0.8,1.8,2470.924,13.28,0.033,83.1
2022-06-29T06:46:03,42.805,6.029,0.017,-0.02,-0.016,106.0,105.0,102.0,13.3,1505.2,332.7,-0.7,1.8,2470.906,13.29,0.026,139.6
2022-06-29T06:49:03,42.805,6.029,0.027,-0.013,0.001,104.0,105.0,103.0,13.3,1505.2,326.7,-0.7,1.8,2470.906,13.29,0.029,115.7
2022-06-29T06:52:03,42.805,6.029,0.036,-0.023,-0.024,106.0,104.0,102.0,13.4,1505.2,323.8,-0.8,1.9,2470.92,13.29,0.042,122.6
2022-06-29T06:55:03,42.805,6.029,0.046,-0.029,-0.041,105.0,106.0,103.0,13.3,1505.2,324.2,-0.7,1.8,2470.923,13.29,0.054,122.2
2022-06-29T06:58:03,42.805,6.029,0.017,-0.021,-0.009,104.0,105.0,102.0,13.3,1505.2,321.3,-0.8,1.8,2470.925,13.29,0.027,141.0
2022-06-29T07:04:03,42.805,6.029,0.015,-0.02,-0.038,104.0,105.0,102.0,13.4,1505.2,323.1,-0.8,1.8,2470.936,13.28,0.025,143.1
2022-06-29T07:07:03,42.805,6.029,0.018,-0.024,-0.013,106.0,104.0,102.0,13.4,1505.2,323.2,-0.8,1.8,2470.968,13.28,0.03,143.1
2022-06-29T07:10:03,42.805,6.029,0.03,-0.018,-0.005,105.0,104.0,103.0,13.4,1505.2,324.6,-0.8,1.8,2470.931,13.28,0.034,121.0
2022-06-29T07:13:03,42.805,6.029,0.015,-0.015,-0.012,105.0,104.0,104.0,13.4,1505.2,324.1,-0.8,1.8,2470.96,13.28,0.021,135.0
2022-06-29T07:16:03,42.805,6.029,0.022,-0.019,0.012,104.0,104.0,104.0,13.4,1505.2,329.4,-0.7,1.8,2470.952,13.28,0.029,130.8
2022-06-29T07:19:03,42.805,6.029,0.035,-0.003,0.026,105.0,104.0,103.0,13.4,1505.2,324.3,-0.8,1.8,2470.952,13.28,0.035,94.9
2022-06-29T07:22:03,42.805,6.029,0.022,-0.018,-0.013,105.0,105.0,102.0,13.4,1505.2,326.8,-0.8,1.8,2470.9,13.28,0.028,129.3
2022-06-29T07:25:03,42.805,6.029,0.019,-0.018,-0.005,105.0,105.0,103.0,13.4,1505.2,329.3,-0.7,1.8,2470.921,13.28,0.026,133.5
2022-06-29T07:28:03,42.805,6.029,0.035,-0.01,-0.016,104.0,105.0,103.0,13.4,1505.2,325.0,-0.8,1.9,2470.908,13.28,0.036,105.9
2022-06-29T07:31:03,42.805,6.029,0.038,-0.018,-0.012,105.0,104.0,102.0,13.4,1505.2,320.8,-0.8,1.8,2470.907,13.28,0.042,115.3
2022-06-29T07:34:03,42.805,6.029,0.015,-0.033,-0.032,103.0,105.0,103.0,13.4,1505.2,326.0,-0.8,1.8,2470.934,13.28,0.036,155.6
2022-06-29T07:37:03,42.805,6.029,0.025,-0.022,-0.037,104.0,104.0,103.0,13.4,1505.2,321.1,-0.8,1.8,2470.96,13.28,0.033,131.3
2022-06-29T07:40:03,42.805,6.029,0.044,-0.041,-0.006,104.0,104.0,103.0,13.3,1505.2,331.5,-0.8,1.8,2470.891,13.28,0.06,133.0
2022-06-29T07:43:03,42.805,6.029,-0.006,-0.021,-0.022,105.0,105.0,102.0,13.4,1505.2,324.2,-0.7,1.8,2470.927,13.28,0.021,195.9
2022-06-29T07:46:03,42.805,6.029,0.023,-0.021,-0.031,104.0,104.0,102.0,13.3,1505.2,326.9,-0.8,1.8,2470.899,13.28,0.031,132.4
2022-06-29T07:49:03,42.805,6.029,0.037,-0.01,-0.026,106.0,107.0,103.0,13.3,1505.2,323.9,-0.7,1.8,2470.952,13.28,0.038,105.1
2022-06-29T07:52:03,42.805,6.029,0.027,-0.034,0.018,105.0,105.0,102.0,13.4,1505.2,330.0,-0.7,1.8,2470.91,13.29,0.043,141.5
2022-06-29T07:55:03,42.805,6.029,0.016,0.001,-0.022,105.0,104.0,103.0,13.3,1505.2,330.0,-0.8,1.8,2470.93,13.29,0.016,86.4
2022-06-29T07:58:03,42.805,6.029,0.022,-0.017,-0.009,106.0,104.0,103.0,13.4,1505.2,331.4,-0.7,1.8,2470.971,13.28,0.027,127.7
2022-06-29T08:04:03,42.805,6.029,0.021,-0.011,0.0,104.0,104.0,102.0,13.4,1505.2,328.5,-0.7,1.8,2470.94,13.28,0.023,117.6
2022-06-29T08:07:03,42.805,6.029,0.01,-0.014,0.001,104.0,105.0,102.0,13.4,1505.2,320.2,-0.8,1.8,2470.945,13.28,0.017,144.5
2022-06-29T08:10:03,42.805,6.029,0.006,-0.032,-0.006,105.0,105.0,103.0,13.4,1505.2,325.0,-0.7,1.8,2470.94,13.28,0.032,169.4
2022-06-29T08:13:03,42.805,6.029,0.013,-0.014,0.003,104.0,103.0,102.0,13.3,1505.2,324.8,-0.8,1.8,2470.941,13.28,0.019,137.1
2022-06-29T08:16:03,42.805,6.029,0.012,-0.004,-0.013,105.0,105.0,102.0,13.4,1505.2,320.5,-0.7,1.8,2470.948,13.28,0.012,108.4
2022-06-29T08:19:03,42.805,6.029,0.046,-0.004,0.013,104.0,103.0,103.0,13.4,1505.2,326.7,-0.7,1.8,2470.928,13.28,0.046,95.0
2022-06-29T08:22:03,42.805,6.029,0.029,-0.016,-0.017,105.0,105.0,102.0,13.4,1505.2,330.7,-0.8,1.8,2470.906,13.28,0.033,118.9
2022-06-29T08:25:03,42.805,6.029,-0.003,-0.014,-0.013,105.0,104.0,103.0,13.4,1505.2,322.2,-0.8,1.8,2470.942,13.28,0.014,192.1
2022-06-29T08:28:03,42.805,6.029,0.021,-0.03,-0.022,105.0,104.0,102.0,13.3,1505.2,326.9,-0.7,1.8,2470.911,13.28,0.036,145.0
2022-06-29T08:31:03,42.805,6.029,0.005,-0.016,-0.023,104.0,105.0,102.0,13.4,1505.2,333.6,-0.8,1.8,2470.906,13.28,0.016,162.6
2022-06-29T08:34:03,42.805,6.029,0.031,-0.017,-0.005,106.0,104.0,102.0,13.4,1505.2,324.5,-0.8,1.8,2470.908,13.28,0.035,118.7
2022-06-29T08:37:03,42.805,6.029,0.022,-0.025,-0.019,104.0,104.0,103.0,13.3,1505.2,322.7,-0.8,1.8,2470.921,13.29,0.033,138.7
2022-06-29T08:40:03,42.805,6.029,0.016,0.004,-0.006,105.0,106.0,102.0,13.4,1505.2,329.4,-0.7,1.8,2470.92,13.29,0.016,76.0
2022-06-29T08:43:03,42.805,6.029,0.045,-0.026,-0.015,105.0,104.0,103.0,13.4,1505.2,331.8,-0.7,1.8,2470.918,13.28,0.051,120.0
2022-06-29T08:46:03,42.805,6.029,0.011,-0.004,-0.001,105.0,104.0,102.0,13.4,1505.2,328.4,-0.7,1.8,2470.908,13.28,0.011,110.0
2022-06-29T08:49:03,42.805,6.029,0.017,-0.026,0.013,106.0,104.0,103.0,13.4,1505.2,329.3,-0.7,1.8,2470.863,13.29,0.031,146.8
2022-06-29T08:52:03,42.805,6.029,0.033,-0.04,-0.009,104.0,104.0,102.0,13.4,1505.2,324.8,-0.7,1.8,2470.878,13.29,0.051,140.5
2022-06-29T08:55:03,42.805,6.029,0.019,-0.028,-0.002,104.0,104.0,102.0,13.3,1505.2,321.1,-0.7,1.8,2470.926,13.29,0.033,145.8
2022-06-29T08:58:03,42.805,6.029,0.015,-0.003,-0.014,104.0,104.0,102.0,13.4,1505.2,325.6,-0.8,1.8,2470.85,13.29,0.015,101.3
2022-06-29T09:04:03,42.805,6.029,0.027,-0.025,0.016,102.0,105.0,103.0,13.4,1505.2,328.8,-0.8,1.8,2470.947,13.28,0.036,132.8
2022-06-29T09:07:03,42.805,6.029,0.026,-0.004,-0.021,104.0,105.0,102.0,13.3,1505.2,322.9,-0.7,1.8,2470.93,13.28,0.026,98.7
2022-06-29T09:10:03,42.805,6.029,0.024,-0.011,0.001,106.0,104.0,102.0,13.4,1505.2,328.2,-0.8,1.8,2470.909,13.28,0.026,114.6
2022-06-29T09:13:03,42.805,6.029,0.033,-0.021,-0.009,106.0,103.0,102.0,13.4,1505.2,320.9,-0.8,1.8,2470.906,13.28,0.039,122.5
2022-06-29T09:16:03,42.805,6.029,0.022,-0.011,0.015,107.0,103.0,103.0,13.3,1505.2,325.0,-0.8,1.8,2470.885,13.28,0.024,116.6
2022-06-29T09:19:03,42.805,6.029,0.017,-0.006,0.006,104.0,104.0,106.0,13.4,1505.2,324.4,-0.8,1.8,2470.937,13.28,0.018,109.4
2022-06-29T09:22:03,42.805,6.029,0.017,0.009,-0.006,104.0,105.0,103.0,13.3,1505.2,326.6,-0.7,1.8,2470.908,13.29,0.019,62.1
2022-06-29T09:25:03,42.805,6.029,0.022,-0.035,0.019,104.0,104.0,103.0,13.3,1505.2,333.6,-0.8,1.8,2470.935,13.29,0.041,147.8
2022-06-29T09:28:03,42.805,6.029,0.011,-0.02,-0.034,105.0,105.0,102.0,13.3,1505.2,325.0,-0.8,1.8,2470.878,13.28,0.022,151.2
2022-06-29T09:31:03,42.805,6.029,0.047,-0.014,0.004,106.0,104.0,103.0,13.4,1505.2,328.6,-0.8,1.9,2470.89,13.28,0.049,106.6
2022-06-29T09:34:03,42.805,6.029,0.03,0.0,-0.007,106.0,105.0,103.0,13.4,1505.2,321.5,-0.8,1.8,2470.871,13.28,0.03,90.0
2022-06-29T09:37:03,42.805,6.029,0.016,-0.004,0.01,105.0,108.0,103.0,13.3,1505.2,320.6,-0.7,1.8,2470.861,13.29,0.016,104.0
2022-06-29T09:40:03,42.805,6.029,0.027,-0.015,-0.018,105.0,104.0,103.0,13.4,1505.2,327.4,-0.8,1.8,2470.891,13.29,0.03,119.1
2022-06-29T09:43:03,42.805,6.029,0.048,-0.017,0.008,104.0,103.0,102.0,13.3,1505.2,326.1,-0.8,1.8,2470.846,13.29,0.05,109.5
2022-06-29T09:46:03,42.805,6.029,0.009,-0.018,-0.028,104.0,104.0,103.0,13.4,1505.2,327.0,-0.8,1.8,2470.835,13.29,0.02,153.4
2022-06-29T09:49:03,42.805,6.029,0.013,-0.025,-0.042,104.0,104.0,103.0,13.4,1505.2,326.1,-0.7,1.8,2470.859,13.29,0.028,152.5
2022-06-29T09:52:03,42.805,6.029,0.02,-0.012,-0.001,105.0,103.0,103.0,13.4,1505.2,322.4,-0.8,1.8,2470.861,13.29,0.023,121.0
2022-06-29T09:55:03,42.805,6.029,0.021,-0.015,-0.028,107.0,104.0,102.0,13.3,1505.2,329.0,-0.7,1.8,2470.846,13.29,0.025,125.5
2022-06-29T09:58:03,42.805,6.029,0.02,-0.022,-0.022,104.0,104.0,102.0,13.4,1505.2,322.4,-0.8,1.8,2470.864,13.29,0.029,137.7
2022-06-29T10:01:03,42.805,6.029,0.032,-0.007,-0.022,105.0,102.0,102.0,13.4,1505.2,327.1,-0.8,1.8,2470.825,13.29,0.032,102.3
2022-06-29T10:04:03,42.805,6.029,-0.004,-0.033,0.003,105.0,103.0,103.0,13.4,1505.2,327.3,-0.8,1.8,2470.825,13.29,0.033,186.9
2022-06-29T10:07:03,42.805,6.029,0.025,-0.024,-0.026,103.0,105.0,102.0,13.4,1505.2,330.1,-0.8,1.8,2470.853,13.29,0.034,133.8
2022-06-29T10:10:03,42.805,6.029,0.014,-0.011,0.0,105.0,104.0,103.0,13.4,1505.2,324.0,-0.8,1.9,2470.838,13.29,0.017,128.2
2022-06-29T10:13:03,42.805,6.029,0.012,0.005,0.001,105.0,104.0,102.0,13.3,1505.2,332.3,-0.7,1.8,2470.839,13.29,0.013,67.4
2022-06-29T10:16:03,42.805,6.029,0.009,-0.013,-0.008,103.0,106.0,102.0,13.3,1505.2,329.3,-0.7,1.8,2470.853,13.29,0.015,145.3
2022-06-29T10:19:03,42.805,6.029,0.021,-0.018,-0.002,105.0,104.0,103.0,13.4,1505.2,327.7,-0.7,1.8,2470.865,13.29,0.027,130.6
2022-06-29T10:22:03,42.805,6.029,0.017,-0.013,-0.018,105.0,104.0,102.0,13.4,1505.2,326.7,-0.8,1.8,2470.828,13.29,0.021,127.4
2022-06-29T10:25:03,42.805,6.029,0.007,-0.021,-0.021,103.0,104.0,103.0,13.4,1505.2,324.1,-0.8,1.8,2470.853,13.29,0.022,161.6
2022-06-29T10:28:03,42.805,6.029,0.01,0.013,0.018,105.0,104.0,102.0,13.4,1505.2,321.4,-0.7,1.8,2470.838,13.29,0.016,37.6
2022-06-29T10:31:03,42.805,6.029,0.018,-0.016,-0.014,104.0,102.0,102.0,13.4,1505.2,332.3,-0.7,1.8,2470.85,13.29,0.024,131.6
2022-06-29T10:34:03,42.805,6.029,0.009,0.016,0.003,104.0,104.0,103.0,13.4,1505.2,322.1,-0.7,1.8,2470.876,13.29,0.018,29.4
2022-06-29T10:37:03,42.805,6.029,0.03,0.0,-0.031,103.0,104.0,102.0,13.4,1505.2,328.1,-0.8,1.8,2470.844,13.29,0.03,90.0
2022-06-29T10:40:03,42.805,6.029,0.01,0.005,0.006,103.0,103.0,102.0,13.3,1505.2,328.0,-0.7,1.8,2470.814,13.29,0.011,63.4
2022-06-29T10:43:03,42.805,6.029,0.023,-0.027,-0.028,104.0,103.0,102.0,13.4,1505.2,322.3,-0.7,1.8,2470.816,13.29,0.035,139.6
2022-06-29T10:46:03,42.805,6.029,0.015,-0.021,-0.043,102.0,104.0,102.0,13.4,1505.2,326.5,-0.8,1.8,2470.833,13.29,0.025,144.5
2022-06-29T10:49:03,42.805,6.029,0.021,-0.026,-0.04,104.0,105.0,102.0,13.3,1505.2,323.7,-0.8,1.8,2470.833,13.29,0.033,141.1
2022-06-29T10:52:03,42.805,6.029,0.02,0.0,-0.013,104.0,103.0,102.0,13.3,1505.2,322.4,-0.8,1.8,2470.798,13.29,0.02,90.0